Yankton, SD

6:58 PM CDT on September 21, 2017 (GMT -0500)
Gurney Municipal

Weather History for KYKN - March, 2013

Change the Weather History Date:

Monday, March 18, 2013

  Actual Average Record
Temperature  
Mean Temperature 27 °F -  
Max Temperature 37 °F 46 °F 84 °F (2012)
Min Temperature 17 °F 26 °F 0 °F (1965)
Degree Days  
Heating Degree Days 38    
Moisture  
Dew Point 14 °F    
Average Humidity 59    
Maximum Humidity 93    
Minimum Humidity 38    
Precipitation  
Precipitation 0.00 in - - ()
Sea Level Pressure  
Sea Level Pressure 29.86 in    
Wind  
Wind Speed 22 mph (WNW)    
Max Wind Speed 37 mph    
Max Gust Speed 45 mph    
Visibility 10 miles    
Events      
Averages and records for this station are not official NWS values.
T = Trace of Precipitation, MM = Missing Value Source: NWS Daily Summary

Daily Weather History Graph

Daily Weather History Graph

Search for Another Location

Airport or City:

Trip Planner

Search our weather history database for the weather conditions in past years. The results will help you decide how hot, cold, wet, or windy it might be!

Date:

Astronomy

Mar. 18, 2013 Rise Set
Actual Time 7:35 AM CDT 7:39 PM CDT
Civil Twilight 7:07 AM CDT 8:08 PM CDT
Nautical Twilight 6:34 AM CDT 8:41 PM CDT
Astronomical Twilight 6:00 AM CDT 9:15 PM CDT
Moon 11:28 AM CDT (3/18) 1:48 AM CDT (3/18)
Length of Visible Light 13h 00m
Length of Day
12h 04m
Waxing Crescent, 41% of the Moon is Illuminated
Mar 18
Waxing Crescent
Mar 19
First Quarter
Mar 27
Full
Apr 2
Last Quarter
Apr 10
New

Hourly Weather History & Observations

Time (CDT) Temp. Windchill Dew Point Humidity Pressure Visibility Wind Dir Wind Speed Gust Speed Precip Events Conditions
12:15 AM 35.6 °F 26.2 °F 33.8 °F 93% 29.66 in 10.0 mi SSE 15.0 mph 18.4 mph N/A   Overcast
12:35 AM 35.6 °F 26.6 °F 32.0 °F 87% 29.66 in 10.0 mi South 13.8 mph 23.0 mph N/A   Overcast
1:15 AM 37.4 °F 28.9 °F 33.8 °F 87% 29.66 in 10.0 mi South 13.8 mph - N/A   Overcast
1:35 AM 37.4 °F 28.9 °F 33.8 °F 87% 29.66 in 10.0 mi South 13.8 mph - N/A   Overcast
1:55 AM 37.4 °F 29.8 °F 35.6 °F 93% 29.66 in 10.0 mi SSW 11.5 mph 18.4 mph N/A   Overcast
2:15 AM 37.4 °F 29.3 °F 35.6 °F 93% 29.66 in 4.0 mi SW 12.7 mph 20.7 mph N/A   Overcast
2:35 AM 35.6 °F 25.5 °F 30.2 °F 81% 29.69 in 10.0 mi WNW 17.3 mph - N/A   Overcast
2:55 AM 35.6 °F 24.2 °F 28.4 °F 75% 29.70 in 10.0 mi West 21.9 mph 26.5 mph N/A   Overcast
3:15 AM 35.6 °F 25.2 °F 28.4 °F 75% 29.71 in 10.0 mi West 18.4 mph 23.0 mph N/A   Overcast
3:35 AM 33.8 °F 20.1 °F 26.6 °F 75% 29.71 in 10.0 mi West 29.9 mph 34.5 mph N/A   Overcast
3:55 AM 32.0 °F 18.4 °F 24.8 °F 75% 29.73 in 10.0 mi West 26.5 mph 34.5 mph N/A   Overcast
4:15 AM 30.2 °F 16.8 °F 21.2 °F 69% 29.73 in 10.0 mi WNW 23.0 mph 34.5 mph N/A   Scattered Clouds
4:35 AM 30.2 °F 17.8 °F 21.2 °F 69% 29.74 in 10.0 mi West 19.6 mph 28.8 mph N/A   Scattered Clouds
4:55 AM 30.2 °F 15.4 °F 19.4 °F 64% 29.74 in 10.0 mi WNW 28.8 mph 35.7 mph N/A   Mostly Cloudy
5:15 AM 28.4 °F 12.3 °F 17.6 °F 64% 29.75 in 10.0 mi WNW 32.2 mph 44.9 mph N/A   Partly Cloudy
5:35 AM 26.6 °F 10.3 °F 15.8 °F 64% 29.77 in 10.0 mi WNW 29.9 mph 44.9 mph N/A   Clear
5:55 AM 26.6 °F 12.0 °F 15.8 °F 64% 29.77 in 10.0 mi WNW 23.0 mph 34.5 mph N/A   Clear
6:15 AM 24.8 °F 7.6 °F 12.2 °F 59% 29.77 in 10.0 mi WNW 31.1 mph 40.3 mph N/A   Clear
6:35 AM 24.8 °F 9.3 °F 12.2 °F 59% 29.77 in 10.0 mi WNW 24.2 mph 36.8 mph N/A   Scattered Clouds
6:55 AM 24.8 °F 8.4 °F 12.2 °F 59% 29.78 in 10.0 mi West 27.6 mph 35.7 mph N/A   Partly Cloudy
7:15 AM 23.0 °F 5.4 °F 10.4 °F 59% 29.77 in 10.0 mi WNW 29.9 mph 39.1 mph N/A   Clear
7:35 AM 23.0 °F 6.0 °F 10.4 °F 59% 29.78 in 10.0 mi WNW 27.6 mph 31.1 mph N/A   Clear
7:55 AM 21.2 °F 2.7 °F 8.6 °F 58% 29.79 in 10.0 mi WNW 31.1 mph 40.3 mph N/A   Clear
8:15 AM 21.2 °F 5.2 °F 10.4 °F 63% 29.80 in 10.0 mi West 21.9 mph 39.1 mph N/A   Clear
8:35 AM - - - N/A% 29.80 in 10.0 mi WNW 32.2 mph 42.6 mph N/A   Clear
8:55 AM - - - N/A% 29.81 in 10.0 mi WNW 31.1 mph 41.4 mph N/A   Clear
9:15 AM - - - N/A% 29.83 in 10.0 mi WNW 36.8 mph 43.7 mph N/A   Clear
9:35 AM 21.2 °F 2.4 °F 6.8 °F 54% 29.85 in 10.0 mi WNW 32.2 mph 40.3 mph N/A   Partly Cloudy
9:55 AM 21.2 °F 1.7 °F 5.0 °F 50% 29.86 in 10.0 mi WNW 35.7 mph 43.7 mph N/A   Partly Cloudy
10:15 AM 21.2 °F 2.4 °F 6.8 °F 54% 29.86 in 10.0 mi NW 32.2 mph 41.4 mph N/A   Clear
10:35 AM 21.2 °F 2.4 °F 6.8 °F 54% 29.88 in 10.0 mi WNW 32.2 mph 40.3 mph N/A   Partly Cloudy
10:55 AM 21.2 °F 2.2 °F 3.2 °F 46% 29.88 in 10.0 mi WNW 33.4 mph 43.7 mph N/A   Partly Cloudy
11:15 AM 21.2 °F 3.9 °F 3.2 °F 46% 29.89 in 10.0 mi WNW 26.5 mph 41.4 mph N/A   Partly Cloudy
11:35 AM 21.2 °F 3.5 °F 5.0 °F 50% 29.90 in 10.0 mi NW 27.6 mph 38.0 mph N/A   Partly Cloudy
11:55 AM 21.2 °F 3.0 °F 6.8 °F 54% 29.91 in 8.0 mi WNW 29.9 mph 38.0 mph N/A   Partly Cloudy
12:15 PM 21.2 °F 2.7 °F 6.8 °F 54% 29.91 in 10.0 mi WNW 31.1 mph 39.1 mph N/A   Mostly Cloudy
12:35 PM 23.0 °F 4.9 °F 5.0 °F 46% 29.91 in 10.0 mi WNW 32.2 mph 39.1 mph N/A   Scattered Clouds
12:55 PM 23.0 °F 5.1 °F 6.8 °F 50% 29.91 in 10.0 mi WNW 31.1 mph 36.8 mph N/A   Mostly Cloudy
1:15 PM 24.8 °F 7.1 °F 6.8 °F 46% 29.92 in 10.0 mi WNW 33.4 mph 39.1 mph N/A   Mostly Cloudy
1:35 PM 24.8 °F 7.9 °F 6.8 °F 46% 29.92 in 10.0 mi WNW 29.9 mph 39.1 mph N/A   Mostly Cloudy
1:55 PM 26.6 °F 10.3 °F 8.6 °F 47% 29.92 in 10.0 mi WNW 29.9 mph 39.1 mph N/A   Scattered Clouds
2:15 PM 26.6 °F 11.4 °F 8.6 °F 47% 29.91 in 10.0 mi WNW 25.3 mph 38.0 mph N/A   Scattered Clouds
2:35 PM 28.4 °F 12.0 °F 8.6 °F 43% 29.91 in 10.0 mi WNW 33.4 mph 42.6 mph N/A   Partly Cloudy
2:55 PM 28.4 °F 13.5 °F 8.6 °F 43% 29.91 in 10.0 mi WNW 26.5 mph 36.8 mph N/A   Scattered Clouds
3:15 PM 30.2 °F 14.3 °F 8.6 °F 40% 29.90 in 10.0 mi WNW 34.5 mph 41.4 mph N/A   Scattered Clouds
3:35 PM - - - N/A% 29.90 in 10.0 mi WNW 32.2 mph 40.3 mph N/A   Partly Cloudy
3:55 PM 30.2 °F 15.4 °F 8.6 °F 40% 29.91 in 10.0 mi West 28.8 mph 41.4 mph N/A   Scattered Clouds
4:15 PM 30.2 °F 15.2 °F 8.6 °F 40% 29.92 in 10.0 mi WNW 29.9 mph 38.0 mph N/A   Scattered Clouds
4:35 PM 30.2 °F 16.2 °F 8.6 °F 40% 29.92 in 10.0 mi WNW 25.3 mph 36.8 mph N/A   Scattered Clouds
4:55 PM 32.0 °F 18.1 °F 8.6 °F 38% 29.92 in 10.0 mi WNW 27.6 mph 35.7 mph N/A   Scattered Clouds
5:15 PM 32.0 °F 18.1 °F 8.6 °F 38% 29.93 in 10.0 mi WNW 27.6 mph 35.7 mph N/A   Scattered Clouds
5:35 PM 30.2 °F 16.5 °F 8.6 °F 40% 29.93 in 10.0 mi WNW 24.2 mph 32.2 mph N/A   Partly Cloudy
5:55 PM 30.2 °F 15.7 °F 8.6 °F 40% 29.93 in 10.0 mi WNW 27.6 mph 33.4 mph N/A   Clear
6:15 PM 30.2 °F 17.1 °F 10.4 °F 44% 29.94 in 10.0 mi WNW 21.9 mph 27.6 mph N/A   Clear
6:35 PM 30.2 °F 17.4 °F 10.4 °F 44% 29.95 in 10.0 mi WNW 20.7 mph 32.2 mph N/A   Clear
6:55 PM 28.4 °F 16.2 °F 10.4 °F 47% 29.95 in 10.0 mi NW 17.3 mph - N/A   Clear
7:15 PM 28.4 °F 16.2 °F 10.4 °F 47% 29.96 in 10.0 mi NW 17.3 mph 23.0 mph N/A   Clear
7:35 PM 26.6 °F 14.7 °F 10.4 °F 51% 29.97 in 10.0 mi NW 15.0 mph - N/A   Clear
7:55 PM 24.8 °F 11.9 °F 10.4 °F 54% 29.98 in 10.0 mi NW 16.1 mph - N/A   Clear
8:15 PM 24.8 °F 12.9 °F 12.2 °F 59% 29.99 in 10.0 mi NW 13.8 mph - N/A   Clear
8:35 PM 24.8 °F 13.4 °F 12.2 °F 59% 30.00 in 10.0 mi NW 12.7 mph - N/A   Clear
8:55 PM 23.0 °F 11.7 °F 12.2 °F 63% 30.01 in 10.0 mi NW 11.5 mph - N/A   Clear
9:15 PM 21.2 °F 9.5 °F 12.2 °F 68% 30.01 in 10.0 mi NW 11.5 mph - N/A   Clear
9:35 PM 21.2 °F 10.1 °F 12.2 °F 68% 30.02 in 10.0 mi NW 10.4 mph - N/A   Clear
9:55 PM 21.2 °F 9.5 °F 10.4 °F 63% 30.01 in 10.0 mi NNW 11.5 mph - N/A   Clear
10:15 PM 19.4 °F 7.9 °F 10.4 °F 68% 30.01 in 10.0 mi NNW 10.4 mph - N/A   Clear
10:55 PM 19.4 °F 7.9 °F 10.4 °F 68% 30.02 in 10.0 mi NNW 10.4 mph - N/A   Clear
11:15 PM 17.6 °F 12.3 °F 10.4 °F 73% 30.02 in 10.0 mi NW 3.5 mph - N/A   Clear
11:35 PM 17.6 °F - 10.4 °F 73% 30.03 in 10.0 mi Calm Calm - N/A   Clear
11:55 PM 17.6 °F 8.2 °F 12.2 °F 79% 30.05 in 10.0 mi West 6.9 mph - N/A   Clear